This is the latest recevied weather packets stored in our database for station/object KO4ZGL-13. If no packets are shown the sender has not sent any weather packets the latest 10 day(s).
| Time | Temp. | Humidity | Pressure | Rain* | Wind** | Luminosity | Snow |
|---|---|---|---|---|---|---|---|
| 1778008297 | 27.22° C | 50% | 1017.5 hPa | 0 mm | - | 665 W/m² | - |
| 1778007993 | 27.78° C | 51% | 1017.6 hPa | 0 mm | - | 657 W/m² | - |
| 1778007688 | 27.22° C | 51% | 1017.7 hPa | 0 mm | - | 572 W/m² | - |
| 1778007385 | 28.33° C | 53% | 1017.8 hPa | 0 mm | - | 486 W/m² | - |
| 1778007081 | 27.78° C | 48% | 1017.5 hPa | 0 mm | - | 572 W/m² | - |
| 1778006778 | 27.78° C | 51% | 1017.6 hPa | 0 mm | - | 693 W/m² | - |
| 1778006475 | 27.22° C | 50% | 1017.7 hPa | 0 mm | - | 713 W/m² | - |
| 1778006171 | 27.78° C | 49% | 1017.6 hPa | 0 mm | - | 689 W/m² | - |
| 1778005869 | 27.22° C | 52% | 1017.5 hPa | 0 mm | - | 702 W/m² | - |
| 1778005565 | 27.78° C | 50% | 1017.5 hPa | 0 mm | - | 719 W/m² | - |
| 1778005262 | 27.22° C | 51% | 1017.5 hPa | 0 mm | - | 673 W/m² | - |
| 1778004959 | 27.22° C | 50% | 1017.3 hPa | 0 mm | - | 700 W/m² | - |
| 1778004656 | 27.78° C | 50% | 1017.4 hPa | 0 mm | - | 707 W/m² | - |
| 1778004351 | 27.22° C | 51% | 1017.4 hPa | 0 mm | - | 669 W/m² | - |
| 1778004050 | 27.22° C | 53% | 1017.8 hPa | 0 mm | - | 586 W/m² | - |
| 1778003750 | 27.22° C | 52% | 1017.4 hPa | 0 mm | - | 642 W/m² | - |
| 1778003447 | 27.22° C | 54% | 1017.4 hPa | 0 mm | - | 186 W/m² | - |
| 1778003144 | 27.22° C | 52% | 1017.7 hPa | 0 mm | - | 628 W/m² | - |
| 1778002840 | 26.67° C | 52% | 1017.6 hPa | 0 mm | - | 752 W/m² | - |
| 1778002537 | 27.22° C | 52% | 1017.7 hPa | 0 mm | - | 716 W/m² | - |
| 1778002234 | 27.78° C | 53% | 1017.5 hPa | 0 mm | - | 698 W/m² | - |
| 1778001931 | 27.22° C | 55% | 1017.5 hPa | 0 mm | - | 710 W/m² | - |
| 1778001628 | 27.22° C | 54% | 1017.9 hPa | 0 mm | - | 724 W/m² | - |
| 1778001323 | 26.67° C | 55% | 1018.1 hPa | 0 mm | - | 724 W/m² | - |
| 1778001020 | 26.67° C | 54% | 1018 hPa | 0 mm | - | 733 W/m² | - |
* Rain latest hour (hover to see other rain measurements)
** Current wind speed in m/s (hover to see current wind gust speed)